Retour au catalogue

MMS 4

ActifScienceHEO
NORAD 40485·PAYLOAD·🇺🇸 United States

Lancé Mar 13, 2015 depuis Cape Canaveral Space Force Station

Loading…

Prochains Passages (prochaines 24 heures)

TLE

FraisSource: Space-Track

Époque: Sep 14, 2026, 16:00 UTC

1 40485U 15011D   26257.66671296 -.00001854  00000-0  00000-0 0  9993
2 40485  72.9505 347.7687 8258147 169.4133  66.1843  0.28336063  1410

Suivez MMS 4 en temps réel avec AllMySat

Download on the App Store